Home   Weather   Oranjestad   Past weeks

Flag for Aruba Past Weather in Oranjestad, Aruba — Yesterday and Last 2 Weeks

Now
82 °F

Passing clouds.


Feels Like: 91 °F
Forecast: 80 / 87 °F
Wind: 16 mph from East

Location: Queen Beatrix Airport - Aruba

Current Time: Jun 26, 2017 at 1:22:46 am

Latest Report: Jun 26, 2017 at 12:00 am


Visibility: N/A

Pressure: 29.92 "Hg

Humidity: 84%

Dew Point: 77 °F

Location of OranjestadLocation

Past Weather in Oranjestad — Graph

°F

Oranjestad Temperature Yesterday

Maximum temperature yesterday: 90 °F (at 12:00 pm)
Minimum temperature yesterday: 82 °F (at 12:00 am)
Average temperature yesterday: 85 °F

High & Low Weather Summary for the Past Weeks

 TemperatureHumidityPressure
High91 °F (Jun 11, 1:00 pm)94% (Jun 11, 3:00 am)29.95 "Hg (Jun 11, 3:00 am)
Low77 °F (Jun 21, 1:00 am)63% (Jun 11, 12:00 pm)29.68 "Hg (Jun 17, 3:00 pm)
Average85 °F77%29.87 "Hg
* Reported Jun 11 12:00 am — Jun 26 12:00 am, Oranjestad. Weather by CustomWeather, © 2017

Note: Actual official high and low records may vary slightly from our data, if they occured in-between our weather recording intervals... More about our weather records

Advertising

Oranjestad Weather History for the Previous 24 Hours

Scroll right to see more
 ConditionsComfort  
Time TempWeatherWind HumidityBarometerVisibility
12:00 am
Mon, Jun 26
82 °FPassing clouds.16 mph84%29.92 "HgN/A
11:00 pm
Sun, Jun 25
82 °FPassing clouds.17 mph84%29.92 "HgN/A
10:00 pm82 °FPassing clouds.18 mph84%29.92 "HgN/A
9:00 pm82 °FPassing clouds.21 mph84%29.92 "HgN/A
8:00 pm82 °FPassing clouds.20 mph84%29.89 "HgN/A
7:00 pm82 °FPassing clouds.23 mph84%29.86 "HgN/A
6:00 pm86 °FPassing clouds.21 mph75%29.86 "HgN/A
5:00 pm88 °FPassing clouds.24 mph70%29.86 "HgN/A
4:00 pm90 °FPassing clouds.24 mph67%29.86 "HgN/A
3:00 pm90 °FPassing clouds.22 mph67%29.89 "HgN/A
2:00 pm90 °FPassing clouds.22 mph71%29.92 "HgN/A
1:00 pm90 °FPassing clouds.23 mph71%29.95 "HgN/A
12:00 pm90 °FPassing clouds.25 mph67%29.95 "HgN/A
11:00 am88 °FScattered clouds.25 mph70%29.95 "HgN/A
10:00 am88 °FScattered clouds.25 mph70%29.95 "HgN/A
9:00 am86 °FScattered clouds.24 mph75%29.95 "HgN/A
8:00 am84 °FPassing clouds.24 mph79%29.89 "HgN/A
7:00 am82 °FPassing clouds.22 mph79%29.92 "HgN/A
6:00 am82 °FPassing clouds.22 mph84%29.89 "HgN/A
5:00 am82 °FPassing clouds.18 mph84%29.89 "HgN/A
4:00 am82 °FPassing clouds.21 mph84%29.89 "HgN/A
3:00 am82 °FPassing clouds.20 mph84%29.89 "HgN/A
2:00 am82 °FPassing clouds.21 mph84%29.89 "HgN/A
1:00 am82 °FPassing clouds.20 mph84%29.92 "HgN/A
Weather by CustomWeather, © 2017

See weather overviewHow to use our weather pages